Time,TemperatureF,DewpointF,PressureIn,WindDirection,WindDirectionDegrees,WindSpeedMPH,WindSpeedGustMPH,Humidity,HourlyPrecipIn,Conditions,Clouds,dailyrainin,SoftwareType,DateUTC
2013-01-27 00:03:00,36.3,28.2,30.07,NNE,12,0.0,1.0,72,0.00,,,0.06,meteohub,2013-01-27 08:03:00,
2013-01-27 00:08:00,36.3,28.2,30.07,NNE,12,0.0,0.0,72,0.00,,,0.00,meteohub,2013-01-27 08:08:00,
2013-01-27 00:13:00,36.3,28.2,30.07,NNE,12,0.0,0.0,72,0.00,,,0.00,meteohub,2013-01-27 08:13:00,
2013-01-27 00:18:00,36.3,28.2,30.07,NNE,12,0.0,0.0,72,0.00,,,0.00,meteohub,2013-01-27 08:18:00,
2013-01-27 00:24:00,36.1,28.0,30.07,NNE,12,0.0,0.0,72,0.00,,,0.00,meteohub,2013-01-27 08:24:00,
2013-01-27 00:29:00,36.1,28.0,30.07,NNE,12,0.0,0.0,72,0.00,,,0.00,meteohub,2013-01-27 08:29:00,
2013-01-27 00:34:00,36.1,28.0,30.07,NNE,12,0.0,0.0,72,0.00,,,0.00,meteohub,2013-01-27 08:34:00,
2013-01-27 00:39:00,36.1,28.0,30.07,NNE,12,0.0,0.0,72,0.00,,,0.00,meteohub,2013-01-27 08:39:00,
2013-01-27 00:44:00,36.0,27.9,30.07,NNE,12,0.0,0.0,72,0.00,,,0.00,meteohub,2013-01-27 08:44:00,
2013-01-27 00:49:00,36.0,27.9,30.06,NNE,12,0.0,0.0,72,0.00,,,0.00,meteohub,2013-01-27 08:49:00,
2013-01-27 00:54:00,36.0,27.9,30.06,NNE,12,0.0,0.0,72,0.00,,,0.00,meteohub,2013-01-27 08:54:00,
2013-01-27 00:59:00,36.0,27.9,30.07,NNE,12,0.0,0.0,72,0.00,,,0.00,meteohub,2013-01-27 08:59:00,
2013-01-27 01:04:00,35.8,27.7,30.07,NNE,12,0.0,0.0,72,0.00,,,0.00,meteohub,2013-01-27 09:04:00,
2013-01-27 01:09:00,35.8,27.7,30.07,NNE,12,0.0,0.0,72,0.00,,,0.00,meteohub,2013-01-27 09:09:00,
2013-01-27 01:14:00,35.8,27.7,30.07,NNE,12,0.0,0.0,72,0.00,,,0.00,meteohub,2013-01-27 09:14:00,
2013-01-27 01:19:00,35.8,27.7,30.07,NNE,12,0.0,0.0,72,0.00,,,0.00,meteohub,2013-01-27 09:19:00,
2013-01-27 01:24:00,35.8,27.7,30.07,NNE,12,0.0,0.0,72,0.00,,,0.00,meteohub,2013-01-27 09:24:00,
2013-01-27 01:29:00,35.8,27.7,30.07,NNE,12,0.0,0.0,72,0.00,,,0.00,meteohub,2013-01-27 09:29:00,
2013-01-27 01:34:00,35.8,27.7,30.07,NNE,12,0.0,0.0,72,0.00,,,0.00,meteohub,2013-01-27 09:34:00,
2013-01-27 01:39:00,36.0,27.9,30.07,NNE,12,0.0,0.0,72,0.00,,,0.00,meteohub,2013-01-27 09:39:00,
2013-01-27 01:44:00,36.1,28.0,30.08,NNE,12,0.0,1.0,72,0.00,,,0.00,meteohub,2013-01-27 09:44:00,
2013-01-27 01:49:00,36.1,28.0,30.08,NNE,12,0.0,1.0,72,0.00,,,0.00,meteohub,2013-01-27 09:49:00,
2013-01-27 01:54:00,36.1,28.0,30.07,NNE,12,0.0,1.0,72,0.00,,,0.00,meteohub,2013-01-27 09:54:00,
2013-01-27 01:59:00,36.1,28.0,30.08,NNE,12,0.0,0.0,72,0.00,,,0.00,meteohub,2013-01-27 09:59:00,
2013-01-27 02:04:00,36.1,28.0,30.08,NNE,12,0.0,0.0,72,0.00,,,0.00,meteohub,2013-01-27 10:04:00,
2013-01-27 02:09:00,36.1,28.0,30.07,NNE,12,0.0,0.0,72,0.00,,,0.00,meteohub,2013-01-27 10:09:00,
2013-01-27 02:14:00,36.1,28.0,30.08,NNE,12,0.0,0.0,72,0.00,,,0.00,meteohub,2013-01-27 10:14:00,
2013-01-27 02:19:00,36.1,28.0,30.08,NNE,12,0.0,0.0,72,0.00,,,0.00,meteohub,2013-01-27 10:19:00,
2013-01-27 02:24:00,36.1,28.0,30.08,NNE,30,1.0,0.0,72,0.00,,,0.00,meteohub,2013-01-27 10:24:00,
2013-01-27 02:29:00,36.1,28.0,30.08,NNE,31,0.0,2.0,72,0.00,,,0.00,meteohub,2013-01-27 10:29:00,
2013-01-27 02:34:00,36.1,28.0,30.08,NNE,31,0.0,2.0,72,0.00,,,0.00,meteohub,2013-01-27 10:34:00,
2013-01-27 02:39:00,36.1,28.0,30.08,NNE,31,0.0,2.0,72,0.00,,,0.00,meteohub,2013-01-27 10:39:00,
2013-01-27 02:44:00,36.1,28.0,30.08,NNE,31,0.0,0.0,72,0.00,,,0.00,meteohub,2013-01-27 10:44:00,
2013-01-27 02:49:00,36.1,28.0,30.08,NNE,31,0.0,0.0,72,0.00,,,0.00,meteohub,2013-01-27 10:49:00,
2013-01-27 02:54:00,36.1,28.0,30.08,NNE,31,0.0,0.0,72,0.01,,,0.01,meteohub,2013-01-27 10:54:00,
2013-01-27 02:59:00,36.1,28.0,30.08,NNE,31,0.0,0.0,72,0.01,,,0.01,meteohub,2013-01-27 10:59:00,
2013-01-27 03:04:00,36.1,28.0,30.08,NNE,31,0.0,0.0,72,0.01,,,0.01,meteohub,2013-01-27 11:04:00,
2013-01-27 03:10:00,36.1,28.0,30.08,NNE,31,0.0,0.0,72,0.01,,,0.01,meteohub,2013-01-27 11:10:00,
2013-01-27 03:15:00,36.1,28.0,30.08,NNE,31,0.0,0.0,72,0.01,,,0.01,meteohub,2013-01-27 11:15:00,
2013-01-27 03:20:00,36.3,28.2,30.07,NNE,31,0.0,0.0,72,0.01,,,0.01,meteohub,2013-01-27 11:20:00,
2013-01-27 03:25:00,36.3,28.2,30.08,NNE,31,0.0,1.0,72,0.01,,,0.01,meteohub,2013-01-27 11:25:00,
2013-01-27 03:30:00,36.5,28.4,30.08,NNE,31,0.0,2.0,72,0.01,,,0.01,meteohub,2013-01-27 11:30:00,
2013-01-27 03:35:00,36.7,28.6,30.07,NNE,31,0.0,2.0,72,0.01,,,0.01,meteohub,2013-01-27 11:35:00,
2013-01-27 03:40:00,36.7,28.6,30.07,NNE,31,0.0,2.0,72,0.02,,,0.02,meteohub,2013-01-27 11:40:00,
2013-01-27 03:45:00,36.9,28.8,30.07,NNE,31,0.0,2.0,72,0.02,,,0.02,meteohub,2013-01-27 11:45:00,
2013-01-27 03:50:00,36.9,28.8,30.07,NNE,31,0.0,2.0,72,0.01,,,0.02,meteohub,2013-01-27 11:50:00,
2013-01-27 03:55:00,36.9,28.8,30.07,NNE,31,0.0,2.0,72,0.01,,,0.02,meteohub,2013-01-27 11:55:00,
2013-01-27 04:00:00,36.9,28.8,30.07,NNE,31,0.0,1.0,72,0.01,,,0.02,meteohub,2013-01-27 12:00:00,
2013-01-27 04:05:00,36.9,28.8,30.07,NNE,31,0.0,1.0,72,0.01,,,0.02,meteohub,2013-01-27 12:05:00,
2013-01-27 04:10:00,36.9,28.8,30.07,NNE,31,0.0,1.0,72,0.01,,,0.02,meteohub,2013-01-27 12:10:00,
2013-01-27 04:15:00,36.9,28.8,30.07,NNE,31,0.0,1.0,72,0.01,,,0.02,meteohub,2013-01-27 12:15:00,
2013-01-27 04:20:00,36.9,28.8,30.08,North,5,0.0,0.0,72,0.01,,,0.02,meteohub,2013-01-27 12:20:00,
2013-01-27 04:25:00,36.9,28.8,30.08,North,5,0.0,1.0,72,0.01,,,0.02,meteohub,2013-01-27 12:25:00,
2013-01-27 04:30:00,36.7,28.6,30.07,North,5,0.0,1.0,72,0.01,,,0.02,meteohub,2013-01-27 12:30:00,
2013-01-27 04:35:00,36.7,28.6,30.08,North,5,0.0,1.0,72,0.01,,,0.02,meteohub,2013-01-27 12:35:00,
2013-01-27 04:40:00,36.5,28.4,30.08,North,5,0.0,0.0,72,0.00,,,0.02,meteohub,2013-01-27 12:40:00,
2013-01-27 04:45:00,36.5,28.4,30.08,North,5,0.0,0.0,72,0.00,,,0.02,meteohub,2013-01-27 12:45:00,
2013-01-27 04:50:00,36.5,29.7,30.08,North,5,0.0,0.0,76,0.00,,,0.02,meteohub,2013-01-27 12:50:00,
2013-01-27 04:55:00,36.5,29.7,30.08,North,5,0.0,0.0,76,0.00,,,0.02,meteohub,2013-01-27 12:55:00,
2013-01-27 05:00:00,36.3,28.2,30.08,North,5,0.0,0.0,72,0.00,,,0.02,meteohub,2013-01-27 13:00:00,
2013-01-27 05:05:00,36.3,28.2,30.08,North,5,0.0,0.0,72,0.00,,,0.02,meteohub,2013-01-27 13:05:00,
2013-01-27 05:10:00,36.3,28.2,30.08,North,5,0.0,0.0,72,0.00,,,0.02,meteohub,2013-01-27 13:10:00,
2013-01-27 05:15:00,36.3,28.2,30.08,North,5,0.0,0.0,72,0.00,,,0.02,meteohub,2013-01-27 13:15:00,
2013-01-27 05:20:00,36.3,28.2,30.08,North,5,0.0,0.0,72,0.00,,,0.02,meteohub,2013-01-27 13:20:00,
2013-01-27 05:25:00,36.5,28.4,30.08,North,5,0.0,0.0,72,0.00,,,0.02,meteohub,2013-01-27 13:25:00,
2013-01-27 05:30:00,36.7,28.6,30.08,NNE,33,0.0,0.0,72,0.00,,,0.02,meteohub,2013-01-27 13:30:00,
2013-01-27 05:35:00,36.7,28.6,30.08,NNE,33,0.0,2.0,72,0.00,,,0.02,meteohub,2013-01-27 13:35:00,
2013-01-27 05:40:00,36.7,28.6,30.08,NNE,33,0.0,2.0,72,0.00,,,0.02,meteohub,2013-01-27 13:40:00,
2013-01-27 05:45:00,36.9,28.8,30.08,South,180,0.0,2.0,72,0.00,,,0.02,meteohub,2013-01-27 13:45:00,
2013-01-27 05:50:00,37.0,28.9,30.08,South,184,2.0,2.0,72,0.00,,,0.02,meteohub,2013-01-27 13:50:00,
2013-01-27 05:55:00,37.4,29.1,30.08,SSW,195,0.0,6.0,72,0.00,,,0.02,meteohub,2013-01-27 13:55:00,
2013-01-27 06:00:00,37.6,29.3,30.08,SSW,201,0.0,6.0,72,0.00,,,0.02,meteohub,2013-01-27 14:00:00,
2013-01-27 06:05:00,37.6,29.3,30.08,South,180,0.0,6.0,72,0.00,,,0.02,meteohub,2013-01-27 14:05:00,
2013-01-27 06:10:00,37.6,29.3,30.08,South,173,0.0,6.0,72,0.00,,,0.02,meteohub,2013-01-27 14:10:00,
2013-01-27 06:15:00,37.6,29.3,30.08,South,173,0.0,3.0,72,0.00,,,0.02,meteohub,2013-01-27 14:15:00,
2013-01-27 06:20:00,37.6,29.3,30.08,South,173,0.0,3.0,72,0.00,,,0.02,meteohub,2013-01-27 14:20:00,
2013-01-27 06:25:00,37.4,29.1,30.08,South,173,0.0,0.0,72,0.00,,,0.02,meteohub,2013-01-27 14:25:00,
2013-01-27 06:31:00,37.4,29.1,30.08,South,173,0.0,0.0,72,0.00,,,0.02,meteohub,2013-01-27 14:31:00,
2013-01-27 06:36:00,37.2,29.1,30.08,South,173,0.0,0.0,72,0.00,,,0.02,meteohub,2013-01-27 14:36:00,
2013-01-27 06:41:00,37.2,29.1,30.08,South,173,0.0,0.0,72,0.00,,,0.02,meteohub,2013-01-27 14:41:00,
2013-01-27 06:46:00,37.2,29.1,30.09,South,173,0.0,1.0,72,0.00,,,0.02,meteohub,2013-01-27 14:46:00,
2013-01-27 06:51:00,37.2,29.1,30.09,South,173,0.0,1.0,72,0.00,,,0.02,meteohub,2013-01-27 14:51:00,
2013-01-27 06:56:00,37.2,29.1,30.09,SSW,199,0.0,1.0,72,0.00,,,0.02,meteohub,2013-01-27 14:56:00,
2013-01-27 07:01:00,37.2,29.1,30.08,SSW,199,0.0,1.0,72,0.00,,,0.02,meteohub,2013-01-27 15:01:00,
2013-01-27 07:06:00,37.4,29.1,30.08,South,186,2.0,2.0,72,0.00,,,0.02,meteohub,2013-01-27 15:06:00,
2013-01-27 07:11:00,37.6,29.1,30.08,South,186,0.0,1.0,71,0.00,,,0.02,meteohub,2013-01-27 15:11:00,
2013-01-27 07:16:00,37.8,29.1,30.08,South,186,0.0,4.0,71,0.00,,,0.02,meteohub,2013-01-27 15:16:00,
2013-01-27 07:21:00,37.8,29.1,30.09,South,186,0.0,4.0,71,0.00,,,0.02,meteohub,2013-01-27 15:21:00,
2013-01-27 07:26:00,37.6,29.1,30.09,South,186,0.0,1.0,71,0.00,,,0.02,meteohub,2013-01-27 15:26:00,
2013-01-27 07:31:00,37.6,29.3,30.09,South,186,0.0,1.0,72,0.00,,,0.02,meteohub,2013-01-27 15:31:00,
2013-01-27 07:36:00,37.6,29.3,30.09,South,186,0.0,1.0,72,0.00,,,0.02,meteohub,2013-01-27 15:36:00,
2013-01-27 07:41:00,37.4,29.1,30.09,South,186,0.0,1.0,72,0.00,,,0.02,meteohub,2013-01-27 15:41:00,
2013-01-27 07:46:00,37.6,29.3,30.09,South,186,0.0,0.0,72,0.00,,,0.02,meteohub,2013-01-27 15:46:00,
2013-01-27 07:51:00,37.6,29.3,30.09,South,186,0.0,0.0,72,0.00,,,0.02,meteohub,2013-01-27 15:51:00,
2013-01-27 07:56:00,37.4,29.1,30.09,South,186,0.0,0.0,72,0.00,,,0.02,meteohub,2013-01-27 15:56:00,
2013-01-27 08:01:00,37.4,29.1,30.09,South,186,0.0,0.0,72,0.00,,,0.02,meteohub,2013-01-27 16:01:00,
2013-01-27 08:06:00,37.4,29.1,30.10,South,186,0.0,0.0,72,0.00,,,0.02,meteohub,2013-01-27 16:06:00,
2013-01-27 08:11:00,37.4,29.1,30.10,South,186,0.0,0.0,72,0.00,,,0.02,meteohub,2013-01-27 16:11:00,
2013-01-27 08:16:00,37.6,29.3,30.10,South,186,0.0,1.0,72,0.00,,,0.02,meteohub,2013-01-27 16:16:00,
2013-01-27 08:21:00,37.6,29.3,30.10,South,186,0.0,1.0,72,0.00,,,0.02,meteohub,2013-01-27 16:21:00,
2013-01-27 08:26:00,37.8,29.5,30.10,ESE,107,0.0,3.0,72,0.00,,,0.02,meteohub,2013-01-27 16:26:00,
2013-01-27 08:31:00,37.8,29.5,30.10,ESE,107,0.0,3.0,72,0.00,,,0.02,meteohub,2013-01-27 16:31:00,
2013-01-27 08:36:00,37.8,29.5,30.10,ESE,107,0.0,3.0,72,0.00,,,0.02,meteohub,2013-01-27 16:36:00,
2013-01-27 08:41:00,37.9,29.7,30.10,ESE,115,0.0,2.0,72,0.00,,,0.02,meteohub,2013-01-27 16:41:00,
2013-01-27 08:46:00,37.9,29.7,30.10,ESE,115,0.0,2.0,72,0.00,,,0.02,meteohub,2013-01-27 16:46:00,
2013-01-27 08:51:00,38.1,29.8,30.10,WSW,244,3.0,3.0,72,0.00,,,0.02,meteohub,2013-01-27 16:51:00,
2013-01-27 08:56:00,38.3,30.0,30.11,WSW,248,0.0,3.0,72,0.00,,,0.02,meteohub,2013-01-27 16:56:00,
2013-01-27 09:01:00,38.7,30.4,30.10,WSW,248,0.0,3.0,72,0.00,,,0.02,meteohub,2013-01-27 17:01:00,
2013-01-27 09:06:00,38.8,30.6,30.10,WSW,248,0.0,3.0,72,0.00,,,0.02,meteohub,2013-01-27 17:06:00,
2013-01-27 09:11:00,39.2,31.6,30.10,SSE,165,0.0,2.0,74,0.00,,,0.02,meteohub,2013-01-27 17:11:00,
2013-01-27 09:16:00,39.7,33.1,30.10,SSW,209,0.0,3.0,77,0.00,,,0.02,meteohub,2013-01-27 17:16:00,
2013-01-27 09:21:00,39.9,34.0,30.10,South,182,0.0,3.0,79,0.00,,,0.02,meteohub,2013-01-27 17:21:00,
2013-01-27 09:26:00,40.3,35.2,30.10,SSW,202,0.0,3.0,82,0.00,,,0.02,meteohub,2013-01-27 17:26:00,
2013-01-27 09:31:00,40.5,35.8,30.10,SSW,202,0.0,3.0,83,0.00,,,0.02,meteohub,2013-01-27 17:31:00,
2013-01-27 09:36:00,40.6,36.1,30.10,SSW,202,0.0,3.0,84,0.00,,,0.02,meteohub,2013-01-27 17:36:00,
2013-01-27 09:41:00,40.8,36.3,30.10,ESE,108,3.0,3.0,84,0.00,,,0.02,meteohub,2013-01-27 17:41:00,
2013-01-27 09:46:00,40.8,36.3,30.10,South,184,0.0,5.0,84,0.00,,,0.02,meteohub,2013-01-27 17:46:00,
2013-01-27 09:51:00,40.8,36.3,30.11,SE,125,1.0,5.0,84,0.00,,,0.02,meteohub,2013-01-27 17:51:00,
2013-01-27 09:56:00,41.0,36.5,30.11,SE,125,0.0,5.0,84,0.00,,,0.02,meteohub,2013-01-27 17:56:00,
2013-01-27 10:01:00,41.4,36.9,30.11,SE,139,0.0,4.0,84,0.00,,,0.02,meteohub,2013-01-27 18:01:00,
2013-01-27 10:06:00,41.2,37.0,30.11,SE,132,0.0,3.0,85,0.00,,,0.02,meteohub,2013-01-27 18:06:00,
2013-01-27 10:11:00,41.2,37.0,30.11,SE,132,0.0,1.0,85,0.00,,,0.02,meteohub,2013-01-27 18:11:00,
2013-01-27 10:16:00,41.4,37.2,30.11,SSW,202,1.0,1.0,85,0.00,,,0.02,meteohub,2013-01-27 18:16:00,
2013-01-27 10:21:00,41.5,37.4,30.11,South,174,3.0,3.0,85,0.00,,,0.02,meteohub,2013-01-27 18:21:00,
2013-01-27 10:27:00,41.5,37.4,30.11,SSW,200,2.0,4.0,85,0.00,,,0.02,meteohub,2013-01-27 18:27:00,
2013-01-27 10:32:00,41.5,37.4,30.11,SE,142,0.0,5.0,85,0.00,,,0.02,meteohub,2013-01-27 18:32:00,
2013-01-27 10:37:00,41.5,37.4,30.11,SE,127,0.0,5.0,85,0.00,,,0.02,meteohub,2013-01-27 18:37:00,
2013-01-27 10:42:00,41.7,37.6,30.11,SSE,153,0.0,5.0,85,0.00,,,0.02,meteohub,2013-01-27 18:42:00,
2013-01-27 10:47:00,41.7,37.2,30.11,South,190,2.0,5.0,84,0.00,,,0.02,meteohub,2013-01-27 18:47:00,
2013-01-27 10:52:00,41.7,37.2,30.11,South,178,2.0,4.0,84,0.00,,,0.02,meteohub,2013-01-27 18:52:00,
2013-01-27 10:57:00,41.9,37.4,30.11,SSW,200,0.0,5.0,84,0.00,,,0.02,meteohub,2013-01-27 18:57:00,
2013-01-27 11:02:00,41.9,37.4,30.11,ESE,115,3.0,6.0,84,0.00,,,0.02,meteohub,2013-01-27 19:02:00,
2013-01-27 11:07:00,41.9,37.4,30.11,SSW,192,0.0,6.0,84,0.00,,,0.02,meteohub,2013-01-27 19:07:00,
2013-01-27 11:12:00,41.7,37.6,30.10,South,182,3.0,6.0,85,0.00,,,0.02,meteohub,2013-01-27 19:12:00,
2013-01-27 11:17:00,41.9,37.4,30.10,ESE,117,0.0,4.0,84,0.00,,,0.02,meteohub,2013-01-27 19:17:00,
2013-01-27 11:22:00,41.7,37.6,30.10,SSE,165,0.0,4.0,85,0.00,,,0.02,meteohub,2013-01-27 19:22:00,
2013-01-27 11:27:00,41.9,37.8,30.10,ESE,102,0.0,4.0,85,0.00,,,0.02,meteohub,2013-01-27 19:27:00,
2013-01-27 11:32:00,41.9,37.4,30.10,SW,227,0.0,4.0,84,0.00,,,0.02,meteohub,2013-01-27 19:32:00,
2013-01-27 11:37:00,41.7,36.9,30.10,SSW,202,2.0,5.0,83,0.00,,,0.02,meteohub,2013-01-27 19:37:00,
2013-01-27 11:42:00,41.9,37.4,30.09,SE,136,1.0,6.0,84,0.00,,,0.02,meteohub,2013-01-27 19:42:00,
2013-01-27 11:47:00,42.1,37.9,30.09,South,175,3.0,6.0,85,0.00,,,0.02,meteohub,2013-01-27 19:47:00,
2013-01-27 11:52:00,41.9,37.4,30.09,SSW,207,2.0,6.0,84,0.00,,,0.02,meteohub,2013-01-27 19:52:00,
2013-01-27 11:57:00,41.7,37.2,30.09,ESE,113,5.0,5.0,84,0.00,,,0.02,meteohub,2013-01-27 19:57:00,
2013-01-27 12:02:00,41.5,37.0,30.09,SSW,205,5.0,5.0,84,0.00,,,0.02,meteohub,2013-01-27 20:02:00,
2013-01-27 12:07:00,41.2,36.7,30.09,SSW,212,2.0,8.0,84,0.01,,,0.03,meteohub,2013-01-27 20:07:00,
2013-01-27 12:12:00,41.0,36.9,30.09,SSW,195,1.0,8.0,85,0.01,,,0.03,meteohub,2013-01-27 20:12:00,
2013-01-27 12:17:00,40.8,36.7,30.09,ESE,123,0.0,8.0,85,0.01,,,0.03,meteohub,2013-01-27 20:17:00,
2013-01-27 12:22:00,40.8,36.7,30.08,SE,125,3.0,8.0,85,0.01,,,0.03,meteohub,2013-01-27 20:22:00,
2013-01-27 12:27:00,40.6,36.5,30.08,ESE,117,4.0,4.0,85,0.01,,,0.03,meteohub,2013-01-27 20:27:00,
2013-01-27 12:32:00,40.5,36.3,30.08,SE,142,0.0,5.0,85,0.01,,,0.03,meteohub,2013-01-27 20:32:00,
2013-01-27 12:37:00,40.5,36.3,30.08,SE,128,0.0,5.0,85,0.01,,,0.03,meteohub,2013-01-27 20:37:00,
2013-01-27 12:42:00,40.3,36.1,30.08,SE,126,0.0,5.0,85,0.01,,,0.03,meteohub,2013-01-27 20:42:00,
2013-01-27 12:47:00,40.3,36.1,30.07,ESE,119,2.0,6.0,85,0.01,,,0.03,meteohub,2013-01-27 20:47:00,
2013-01-27 12:52:00,39.9,35.8,30.07,SE,135,0.0,7.0,85,0.01,,,0.03,meteohub,2013-01-27 20:52:00,
2013-01-27 12:57:00,39.9,35.8,30.07,SE,124,1.0,7.0,85,0.02,,,0.04,meteohub,2013-01-27 20:57:00,
2013-01-27 13:02:00,39.9,35.8,30.06,ESE,118,0.0,7.0,85,0.02,,,0.04,meteohub,2013-01-27 21:02:00,
2013-01-27 13:07:00,40.1,35.6,30.06,ESE,120,1.0,8.0,84,0.02,,,0.05,meteohub,2013-01-27 21:07:00,
2013-01-27 13:12:00,39.7,35.2,30.06,ESE,116,0.0,8.0,84,0.02,,,0.05,meteohub,2013-01-27 21:12:00,
2013-01-27 13:17:00,39.9,35.4,30.06,ESE,116,0.0,5.0,84,0.02,,,0.05,meteohub,2013-01-27 21:17:00,
2013-01-27 13:22:00,39.9,35.2,30.06,SE,130,0.0,5.0,83,0.02,,,0.05,meteohub,2013-01-27 21:22:00,
2013-01-27 13:27:00,39.9,35.2,30.05,SE,130,1.0,3.0,83,0.02,,,0.05,meteohub,2013-01-27 21:27:00,
2013-01-27 13:32:00,39.9,35.2,30.05,SE,126,0.0,4.0,83,0.03,,,0.06,meteohub,2013-01-27 21:32:00,
2013-01-27 13:37:00,39.9,34.9,30.05,East,93,0.0,4.0,82,0.03,,,0.06,meteohub,2013-01-27 21:37:00,
2013-01-27 13:42:00,40.1,34.7,30.05,SSW,211,0.0,4.0,81,0.03,,,0.06,meteohub,2013-01-27 21:42:00,
2013-01-27 13:47:00,40.1,34.7,30.05,SE,128,1.0,2.0,81,0.03,,,0.06,meteohub,2013-01-27 21:47:00,
2013-01-27 13:52:00,40.1,34.7,30.05,ESE,108,1.0,2.0,81,0.02,,,0.06,meteohub,2013-01-27 21:52:00,
2013-01-27 13:57:00,40.1,34.7,30.05,SE,140,0.0,2.0,81,0.03,,,0.07,meteohub,2013-01-27 21:57:00,
2013-01-27 14:02:00,40.1,34.7,30.05,SE,140,0.0,2.0,81,0.03,,,0.07,meteohub,2013-01-27 22:02:00,
2013-01-27 14:07:00,40.1,34.7,30.05,ENE,70,1.0,2.0,81,0.02,,,0.07,meteohub,2013-01-27 22:07:00,
2013-01-27 14:12:00,40.1,34.7,30.05,ESE,113,0.0,3.0,81,0.02,,,0.07,meteohub,2013-01-27 22:12:00,
2013-01-27 14:17:00,40.1,34.5,30.05,ESE,104,0.0,3.0,80,0.02,,,0.07,meteohub,2013-01-27 22:17:00,
2013-01-27 14:22:00,40.1,34.5,30.05,SE,127,1.0,3.0,80,0.03,,,0.08,meteohub,2013-01-27 22:22:00,
2013-01-27 14:27:00,39.9,34.3,30.05,SE,127,0.0,2.0,80,0.03,,,0.08,meteohub,2013-01-27 22:27:00,
2013-01-27 14:32:00,39.9,34.3,30.05,ESE,120,0.0,4.0,80,0.03,,,0.09,meteohub,2013-01-27 22:32:00,
2013-01-27 14:37:00,39.7,34.2,30.05,South,179,0.0,4.0,80,0.03,,,0.09,meteohub,2013-01-27 22:37:00,
2013-01-27 14:42:00,39.7,34.2,30.05,ESE,112,4.0,4.0,80,0.03,,,0.09,meteohub,2013-01-27 22:42:00,
2013-01-27 14:47:00,39.6,34.2,30.05,ESE,116,2.0,4.0,81,0.04,,,0.10,meteohub,2013-01-27 22:47:00,
2013-01-27 14:52:00,39.4,34.0,30.05,ESE,123,2.0,4.0,81,0.04,,,0.10,meteohub,2013-01-27 22:52:00,
2013-01-27 14:57:00,39.2,33.8,30.05,ESE,121,3.0,4.0,81,0.03,,,0.10,meteohub,2013-01-27 22:57:00,
2013-01-27 15:02:00,39.0,33.4,30.05,ESE,105,0.0,5.0,80,0.04,,,0.10,meteohub,2013-01-27 23:02:00,
2013-01-27 15:07:00,39.0,33.4,30.05,ESE,117,0.0,5.0,80,0.04,,,0.11,meteohub,2013-01-27 23:07:00,
2013-01-27 15:12:00,39.0,33.1,30.05,East,96,1.0,5.0,79,0.04,,,0.11,meteohub,2013-01-27 23:12:00,
2013-01-27 15:17:00,39.0,33.1,30.05,ESE,123,0.0,5.0,79,0.04,,,0.11,meteohub,2013-01-27 23:17:00,
2013-01-27 15:22:00,39.0,33.1,30.05,ESE,123,0.0,5.0,79,0.03,,,0.11,meteohub,2013-01-27 23:22:00,
2013-01-27 15:27:00,39.0,33.1,30.05,ESE,123,0.0,5.0,79,0.02,,,0.11,meteohub,2013-01-27 23:27:00,
2013-01-27 15:32:00,39.0,33.1,30.05,SSE,167,0.0,4.0,79,0.02,,,0.11,meteohub,2013-01-27 23:32:00,
2013-01-27 15:37:00,39.0,33.4,30.05,ESE,115,0.0,5.0,80,0.03,,,0.12,meteohub,2013-01-27 23:37:00,
2013-01-27 15:42:00,39.0,33.4,30.05,SSE,158,0.0,5.0,80,0.02,,,0.12,meteohub,2013-01-27 23:42:00,
2013-01-27 15:47:00,38.8,33.3,30.05,SE,128,0.0,3.0,80,0.02,,,0.12,meteohub,2013-01-27 23:47:00,
2013-01-27 15:52:00,38.8,33.3,30.05,ESE,117,1.0,4.0,80,0.02,,,0.12,meteohub,2013-01-27 23:52:00,
2013-01-27 15:57:00,38.8,33.3,30.05,SE,134,3.0,4.0,80,0.02,,,0.12,meteohub,2013-01-27 23:57:00,
2013-01-27 16:02:00,38.8,33.3,30.04,ESE,107,0.0,5.0,80,0.02,,,0.13,meteohub,2013-01-28 00:02:00,
2013-01-27 16:07:00,38.8,33.3,30.04,SE,126,2.0,7.0,80,0.02,,,0.13,meteohub,2013-01-28 00:07:00,
2013-01-27 16:12:00,38.7,33.1,30.05,ESE,112,0.0,7.0,80,0.02,,,0.13,meteohub,2013-01-28 00:12:00,
2013-01-27 16:18:00,38.7,33.1,30.04,SE,128,1.0,7.0,80,0.03,,,0.13,meteohub,2013-01-28 00:18:00,
2013-01-27 16:23:00,38.5,32.9,30.04,ESE,113,3.0,7.0,80,0.03,,,0.14,meteohub,2013-01-28 00:23:00,
2013-01-27 16:28:00,38.5,32.9,30.04,SE,130,1.0,8.0,80,0.03,,,0.14,meteohub,2013-01-28 00:28:00,
2013-01-27 16:33:00,38.5,32.9,30.04,ESE,102,0.0,8.0,80,0.04,,,0.14,meteohub,2013-01-28 00:33:00,
2013-01-27 16:38:00,38.1,32.2,30.04,SE,134,2.0,7.0,79,0.03,,,0.15,meteohub,2013-01-28 00:38:00,
2013-01-27 16:43:00,38.1,32.2,30.04,ESE,123,3.0,7.0,79,0.03,,,0.15,meteohub,2013-01-28 00:43:00,
2013-01-27 16:48:00,38.1,32.2,30.04,SE,130,0.0,8.0,79,0.04,,,0.15,meteohub,2013-01-28 00:48:00,
2013-01-27 16:53:00,37.9,32.0,30.04,East,92,0.0,8.0,79,0.04,,,0.16,meteohub,2013-01-28 00:53:00,
2013-01-27 16:58:00,37.9,32.0,30.04,SE,126,0.0,8.0,79,0.03,,,0.16,meteohub,2013-01-28 00:58:00,
2013-01-27 17:03:00,37.9,32.0,30.04,ESE,107,1.0,4.0,79,0.03,,,0.16,meteohub,2013-01-28 01:03:00,
2013-01-27 17:08:00,37.8,31.5,30.04,ESE,109,0.0,4.0,78,0.04,,,0.17,meteohub,2013-01-28 01:08:00,
2013-01-27 17:13:00,37.8,31.5,30.04,ESE,109,0.0,4.0,78,0.04,,,0.17,meteohub,2013-01-28 01:13:00,
2013-01-27 17:18:00,37.8,31.5,30.04,ESE,109,0.0,1.0,78,0.03,,,0.17,meteohub,2013-01-28 01:18:00,
2013-01-27 17:23:00,37.8,31.5,30.04,SE,135,0.0,2.0,78,0.04,,,0.17,meteohub,2013-01-28 01:23:00,
2013-01-27 17:28:00,37.6,31.3,30.04,ENE,78,0.0,2.0,78,0.04,,,0.18,meteohub,2013-01-28 01:28:00,
2013-01-27 17:33:00,37.6,31.1,30.04,ENE,61,3.0,3.0,77,0.03,,,0.18,meteohub,2013-01-28 01:33:00,
2013-01-27 17:38:00,37.6,31.1,30.04,ENE,74,0.0,3.0,77,0.03,,,0.18,meteohub,2013-01-28 01:38:00,
2013-01-27 17:43:00,37.6,31.1,30.04,ENE,57,0.0,3.0,77,0.03,,,0.18,meteohub,2013-01-28 01:43:00,
2013-01-27 17:48:00,37.4,30.6,30.04,ENE,57,0.0,3.0,76,0.02,,,0.18,meteohub,2013-01-28 01:48:00,
2013-01-27 17:53:00,37.4,30.6,30.04,ENE,57,0.0,3.0,76,0.03,,,0.19,meteohub,2013-01-28 01:53:00,
2013-01-27 17:58:00,37.4,30.6,30.04,NE,39,0.0,2.0,76,0.03,,,0.19,meteohub,2013-01-28 01:58:00,
2013-01-27 18:03:00,37.4,30.6,30.04,NE,34,0.0,3.0,76,0.02,,,0.19,meteohub,2013-01-28 02:03:00,
2013-01-27 18:08:00,37.2,30.4,30.04,NE,34,2.0,3.0,76,0.02,,,0.19,meteohub,2013-01-28 02:08:00,
2013-01-27 18:13:00,37.4,30.6,30.04,NE,36,0.0,3.0,76,0.02,,,0.19,meteohub,2013-01-28 02:13:00,
2013-01-27 18:18:00,37.2,30.4,30.04,NW,317,0.0,3.0,76,0.02,,,0.19,meteohub,2013-01-28 02:18:00,
2013-01-27 18:23:00,37.2,30.4,30.04,North,5,0.0,3.0,76,0.01,,,0.19,meteohub,2013-01-28 02:23:00,
2013-01-27 18:28:00,37.2,30.4,30.04,North,5,0.0,3.0,76,0.01,,,0.19,meteohub,2013-01-28 02:28:00,
2013-01-27 18:33:00,37.2,30.4,30.04,North,5,0.0,2.0,76,0.01,,,0.19,meteohub,2013-01-28 02:33:00,
2013-01-27 18:38:00,37.2,30.0,30.04,North,5,0.0,1.0,75,0.01,,,0.19,meteohub,2013-01-28 02:38:00,
2013-01-27 18:43:00,37.2,30.0,30.04,North,5,0.0,2.0,75,0.01,,,0.19,meteohub,2013-01-28 02:43:00,
2013-01-27 18:48:00,37.2,30.0,30.04,North,5,0.0,2.0,75,0.00,,,0.19,meteohub,2013-01-28 02:48:00,
2013-01-27 18:53:00,37.0,29.8,30.04,ESE,120,2.0,2.0,75,0.00,,,0.19,meteohub,2013-01-28 02:53:00,
2013-01-27 18:58:00,37.0,29.8,30.04,SE,126,0.0,1.0,75,0.00,,,0.19,meteohub,2013-01-28 02:58:00,
2013-01-27 19:03:00,37.0,29.8,30.04,ESE,123,0.0,4.0,75,0.00,,,0.19,meteohub,2013-01-28 03:03:00,
2013-01-27 19:08:00,37.0,29.8,30.04,NE,53,0.0,4.0,75,0.00,,,0.19,meteohub,2013-01-28 03:08:00,
2013-01-27 19:13:00,37.2,30.0,30.04,NNE,31,0.0,3.0,75,0.00,,,0.19,meteohub,2013-01-28 03:13:00,
2013-01-27 19:18:00,37.2,30.0,30.04,ENE,74,0.0,3.0,75,0.00,,,0.19,meteohub,2013-01-28 03:18:00,
2013-01-27 19:23:00,37.2,30.0,30.04,ENE,61,0.0,3.0,75,0.00,,,0.19,meteohub,2013-01-28 03:23:00,
2013-01-27 19:28:00,37.2,30.0,30.04,ENE,62,0.0,3.0,75,0.00,,,0.19,meteohub,2013-01-28 03:28:00,
2013-01-27 19:33:00,37.2,30.0,30.04,NNW,347,0.0,3.0,75,0.00,,,0.19,meteohub,2013-01-28 03:33:00,
2013-01-27 19:38:00,37.2,30.0,30.04,East,98,0.0,3.0,75,0.00,,,0.19,meteohub,2013-01-28 03:38:00,
2013-01-27 19:43:00,37.2,30.0,30.04,East,96,0.0,3.0,75,0.01,,,0.20,meteohub,2013-01-28 03:43:00,
2013-01-27 19:48:00,37.2,30.0,30.04,ENE,72,1.0,3.0,75,0.01,,,0.20,meteohub,2013-01-28 03:48:00,
2013-01-27 19:53:00,37.2,30.0,30.04,ENE,74,0.0,3.0,75,0.01,,,0.20,meteohub,2013-01-28 03:53:00,
2013-01-27 19:58:00,37.2,30.0,30.04,ENE,74,0.0,2.0,75,0.01,,,0.20,meteohub,2013-01-28 03:58:00,
2013-01-27 20:03:00,37.0,29.8,30.04,ENE,74,0.0,2.0,75,0.01,,,0.20,meteohub,2013-01-28 04:03:00,
2013-01-27 20:08:00,37.0,29.8,30.04,ENE,74,0.0,2.0,75,0.01,,,0.20,meteohub,2013-01-28 04:08:00,
2013-01-27 20:14:00,37.0,29.8,30.04,ENE,74,0.0,2.0,75,0.01,,,0.20,meteohub,2013-01-28 04:14:00,
2013-01-27 20:18:00,37.0,29.8,30.04,NNE,32,0.0,2.0,75,0.01,,,0.20,meteohub,2013-01-28 04:18:00,
2013-01-27 20:23:00,37.0,29.8,30.04,NNE,32,0.0,2.0,75,0.01,,,0.20,meteohub,2013-01-28 04:23:00,
2013-01-27 20:28:00,37.0,29.8,30.04,NNE,32,0.0,2.0,75,0.01,,,0.20,meteohub,2013-01-28 04:28:00,
2013-01-27 20:33:00,37.0,29.5,30.04,NNE,32,0.0,2.0,74,0.01,,,0.20,meteohub,2013-01-28 04:33:00,
2013-01-27 20:38:00,37.0,29.5,30.04,NE,50,0.0,2.0,74,0.00,,,0.20,meteohub,2013-01-28 04:38:00,
2013-01-27 20:44:00,36.9,29.3,30.04,NE,50,0.0,2.0,74,0.01,,,0.21,meteohub,2013-01-28 04:44:00,
2013-01-27 20:49:00,37.0,29.5,30.04,NE,46,0.0,2.0,74,0.01,,,0.21,meteohub,2013-01-28 04:49:00,
2013-01-27 20:54:00,37.0,29.5,30.04,NE,46,0.0,2.0,74,0.01,,,0.21,meteohub,2013-01-28 04:54:00,
2013-01-27 20:59:00,37.0,29.5,30.04,NE,46,0.0,2.0,74,0.01,,,0.21,meteohub,2013-01-28 04:59:00,
2013-01-27 21:02:00,36.9,29.3,30.04,NE,46,0.0,2.0,74,0.01,,,0.21,meteohub,2013-01-28 05:02:00,
2013-01-27 21:03:00,37.0,29.5,30.04,NE,46,0.0,2.0,74,0.01,,,0.21,meteohub,2013-01-28 05:03:00,
2013-01-27 21:08:00,36.9,29.3,30.04,NE,46,0.0,2.0,74,0.01,,,0.21,meteohub,2013-01-28 05:08:00,
2013-01-27 21:13:00,36.9,29.3,30.04,NE,46,0.0,1.0,74,0.01,,,0.21,meteohub,2013-01-28 05:13:00,
2013-01-27 21:18:00,36.9,29.3,30.04,NE,46,0.0,2.0,74,0.01,,,0.21,meteohub,2013-01-28 05:18:00,
2013-01-27 21:23:00,36.9,29.3,30.04,NE,46,0.0,2.0,74,0.01,,,0.21,meteohub,2013-01-28 05:23:00,
2013-01-27 21:28:00,36.9,29.3,30.04,NE,46,0.0,2.0,74,0.01,,,0.21,meteohub,2013-01-28 05:28:00,
2013-01-27 21:33:00,36.9,29.3,30.04,NE,52,0.0,2.0,74,0.01,,,0.21,meteohub,2013-01-28 05:33:00,
2013-01-27 21:38:00,36.9,29.3,30.04,SE,134,0.0,2.0,74,0.01,,,0.22,meteohub,2013-01-28 05:38:00,
2013-01-27 21:43:00,36.9,29.3,30.04,ESE,117,0.0,3.0,74,0.01,,,0.22,meteohub,2013-01-28 05:43:00,
2013-01-27 21:48:00,36.9,29.3,30.04,NE,44,0.0,3.0,74,0.01,,,0.22,meteohub,2013-01-28 05:48:00,
2013-01-27 21:53:00,36.9,29.3,30.04,NE,44,1.0,3.0,74,0.01,,,0.22,meteohub,2013-01-28 05:53:00,
2013-01-27 21:58:00,36.9,29.3,30.04,NE,44,0.0,3.0,74,0.01,,,0.22,meteohub,2013-01-28 05:58:00,
2013-01-27 22:03:00,36.9,29.3,30.04,NE,44,0.0,3.0,74,0.01,,,0.22,meteohub,2013-01-28 06:03:00,
2013-01-27 22:08:00,36.9,29.3,30.04,NE,42,2.0,2.0,74,0.01,,,0.22,meteohub,2013-01-28 06:08:00,
2013-01-27 22:13:00,37.0,29.5,30.04,NE,55,2.0,2.0,74,0.01,,,0.22,meteohub,2013-01-28 06:13:00,
2013-01-27 22:18:00,37.0,29.5,30.04,ENE,76,0.0,3.0,74,0.01,,,0.22,meteohub,2013-01-28 06:18:00,
2013-01-27 22:23:00,37.0,29.5,30.03,East,89,2.0,3.0,74,0.01,,,0.22,meteohub,2013-01-28 06:23:00,
2013-01-27 22:28:00,37.0,29.5,30.03,ESE,111,0.0,3.0,74,0.02,,,0.23,meteohub,2013-01-28 06:28:00,
2013-01-27 22:33:00,37.0,29.5,30.03,NE,56,1.0,3.0,74,0.01,,,0.23,meteohub,2013-01-28 06:33:00,
2013-01-27 22:38:00,37.0,29.5,30.03,ENE,62,0.0,3.0,74,0.01,,,0.23,meteohub,2013-01-28 06:38:00,
2013-01-27 22:43:00,37.0,29.5,30.03,ENE,62,0.0,3.0,74,0.01,,,0.23,meteohub,2013-01-28 06:43:00,
2013-01-27 22:48:00,37.0,29.5,30.04,ENE,62,0.0,3.0,74,0.01,,,0.23,meteohub,2013-01-28 06:48:00,
2013-01-27 22:54:00,37.0,29.5,30.04,ENE,62,0.0,2.0,74,0.01,,,0.23,meteohub,2013-01-28 06:54:00,
2013-01-27 22:59:00,36.9,29.3,30.04,ENE,62,0.0,1.0,74,0.01,,,0.23,meteohub,2013-01-28 06:59:00,
2013-01-27 23:04:00,36.9,29.3,30.04,ENE,62,0.0,1.0,74,0.01,,,0.23,meteohub,2013-01-28 07:04:00,
2013-01-27 23:09:00,36.9,29.3,30.04,NE,44,2.0,2.0,74,0.01,,,0.23,meteohub,2013-01-28 07:09:00,
2013-01-27 23:14:00,36.9,29.3,30.04,NE,47,1.0,3.0,74,0.01,,,0.23,meteohub,2013-01-28 07:14:00,
2013-01-27 23:19:00,36.9,29.3,30.04,NE,47,0.0,3.0,74,0.01,,,0.23,meteohub,2013-01-28 07:19:00,
2013-01-27 23:24:00,37.0,29.5,30.04,NE,47,0.0,3.0,74,0.00,,,0.23,meteohub,2013-01-28 07:24:00,
2013-01-27 23:29:00,36.9,29.3,30.04,NE,47,0.0,2.0,74,0.00,,,0.23,meteohub,2013-01-28 07:29:00,
2013-01-27 23:34:00,36.9,29.3,30.04,NE,47,0.0,1.0,74,0.00,,,0.23,meteohub,2013-01-28 07:34:00,
2013-01-27 23:39:00,36.9,29.3,30.04,NE,47,0.0,2.0,74,0.00,,,0.23,meteohub,2013-01-28 07:39:00,
2013-01-27 23:44:00,36.7,29.1,30.03,NE,47,0.0,2.0,74,0.00,,,0.23,meteohub,2013-01-28 07:44:00,
2013-01-27 23:49:00,36.7,29.1,30.03,NE,50,0.0,2.0,74,0.00,,,0.23,meteohub,2013-01-28 07:49:00,
2013-01-27 23:54:00,36.3,28.8,30.04,NE,50,0.0,2.0,74,0.00,,,0.23,meteohub,2013-01-28 07:54:00,
2013-01-27 23:59:00,36.3,28.8,30.04,NE,50,0.0,2.0,74,0.00,,,0.23,meteohub,2013-01-28 07:59:00,